www.pogodaiklimat.ru

Погода и климат >> Архив погоды >> Китай >> Гуанси-Чжуанский автономный район >> Лончжоу


ПОГОДА в Лончжоу

  • Прогноз погоды в Лончжоу
  • Монитор погоды в Лончжоу

АРХИВ ПОГОДЫ в Лончжоу

Время (UTC), дата Ветер
(напр.,м/с)
 
Видим.   Явления Облачность Т
(С)
Тd
(С)
f
(%)
Тe
(С)
Тes
(С)
Комфортность P
(гПа)
Po
(гПа)
Тmin
(С)
Tmax
(С)
R
(мм)
R24
(мм)
S
(см)
09 9.07 СВ 1 10 км {дождь} 10/10 300 м
[]
+25.9 +23.2 85 +35 +35 очень
душно
1002.2 987.5
12 9.07 З 1 10 км в посл. час дождь 10/10 300 м
[]
+25.0 +23.8 93 +34 +34 очень
душно
1003.8 989.0 0.1
15 9.07 СЗ 1 8000 м в посл. час дождь н/о +24.4 +23.7 96 +33 +33 очень
душно
1005.2 990.4
18 9.07 З 1 7000 м в посл. час дождь ?/? +24.1 +23.8 98 +33 +33 очень
душно
1003.6 988.8 +28.4 0.3
21 9.07 ЮЗ 1 н/о слаб. дождь н/о +23.9 +23.6 98 +32 +32 очень
душно
1003.3 988.5
00 10.07 З 1 н/о дымка 10/10 600 м
[]
+24.6 +23.9 96 +34 +34 очень
душно
1005.0 990.1 0.3
03 10.07 З 1 7000 м в посл. час дождь 10/10 600 м
[]
+26.6 +24.1 86 +37 +37 очень
душно
1005.2 990.5
06 10.07 В 1 3900 м слаб. дождь 10/10 300 м
[]
+26.2 +23.9 87 +36 +36 очень
душно
1004.0 989.2 +23.9 2
09 10.07 С 1 7000 м слаб. дождь 10/10 600 м
[]
+26.4 +24.4 89 +37 +37 очень
душно
1003.1 988.4
12 10.07 З 1 9000 м {дождь} 10/10 600 м
[]
+25.5 +24.3 93 +35 +35 очень
душно
1004.2 989.4 0.7
15 10.07 Ю 1 8000 м н/о +25.3 +24.4 95 +35 +35 очень
душно
1006.0 991.2
18 10.07 Ю 1 6000 м дымка ?/? +25.2 +24.7 97 +35 +35 очень
душно
1004.9 990.1 +27.5 0.1
21 10.07 штиль 0 8000 м н/о +25.2 +24.3 95 +35 +35 очень
душно
1004.3 989.6
00 11.07 В 1 н/о дымка 10/10 600 м
[]
+25.9 +24.7 93 +37 +37 очень
душно
1005.6 990.8 0.1
03 11.07 С 2 8000 м 9/9 600 м
[]
+29.4 +25.4 79 +43 +45 опасность
перегрева
1005.8 991.3
06 11.07 З 2 9000 м 9/9 600 м
[]
+32.7 +25.0 64 +46 +48 опасность
перегрева
1004.0 989.4 +25.0
09 11.07 Ю 2 10 км в посл. час дождь 10/10 600 м
[]
+31.3 +26.3 75 +47 +47 опасность
перегрева
1003.3 988.9
12 11.07 В 1 7000 м {дождь} 10/10 600 м
[]
+28.6 +26.0 86 +43 +43 опасность
перегрева
1004.4 989.7 0.0
15 11.07 Ю 1 7000 м н/о +27.3 +25.7 91 +40 +40 очень
душно
1005.5 990.9
18 11.07 Ю 1 4700 м дымка ?/? +26.3 +25.8 97 +39 +39 очень
душно
1004.4 989.8 +33.2
21 11.07 штиль 0 н/о дымка н/о +25.8 +25.3 97 +37 +37 очень
душно
1003.6 988.9
00 12.07 С 1 6000 м дымка 9/9 600 м
[]
+27.1 +25.9 93 +40 +41 очень
душно
1004.5 989.8
03 12.07 С 1 9000 м 9/9 600 м
[]
+31.3 +26.6 76 +48 +50 опасность
перегрева
1004.7 990.3
06 12.07 Ю 1 7000 м слаб. дождь 10/10 300 м
[]
+30.0 +26.6 82 +46 +46 опасность
перегрева
1003.3 988.6 +25.6 0.0
09 12.07 ЮВ 1 7000 м {дождь} 10/10 300 м
[]
+29.9 +27.3 86 +48 +48 опасность
перегрева
1002.0 987.5
12 12.07 В 1 7000 м дымка {дождь} 10/10 600 м
[]
+28.7 +26.9 90 +45 +45 опасность
перегрева
1002.2 987.5 0.3
15 12.07 штиль 0 3500 м дымка н/о +27.5 +27.2 98 +43 +43 опасность
перегрева
1003.3 988.7
18 12.07 штиль 0 4700 м дымка ?/? +26.8 +26.5 98 +41 +41 опасность
перегрева
1002.5 987.9 +32.8
21 12.07 штиль 0 4500 м дымка н/о +26.5 +26.2 98 +40 +40 очень
душно
1002.1 987.5
00 13.07 штиль 0 н/о дымка 10/10 600 м
[]
+27.2 +26.9 98 +42 +42 опасность
перегрева
1002.7 988.0
03 13.07 ЮЗ 1 н/о дымка 10/10 600 м
[]
+30.6 +26.3 78 +47 +47 опасность
перегрева
1003.0 988.5
06 13.07 ЮЗ 1 9000 м 10/10 600 м
[]
+32.1 +26.4 72 +49 +49 опасность
перегрева
1000.9 986.3 +26.3
09 13.07 Ю 1 12 км 10/10 600 м
[]
+33.2 +26.2 67 +49 +49 опасность
перегрева
998.8 984.5
15 13.07 Ю 1 3000 м слаб. дождь н/о +25.2 +24.2 94 +35 +35 очень
душно
1003.4 988.7
18 13.07 штиль 0 н/о слаб. дождь ?/? +24.9 +24.6 98 +35 +35 очень
душно
1001.8 987.2 +33.9 6
21 13.07 Ю 1 5000 м слаб. дождь н/о +24.9 +24.6 98 +35 +35 очень
душно
1000.9 986.2
00 14.07 штиль 0 3200 м дождь 10/10 300 м
[]
+24.7 +24.5 99 +35 +35 очень
душно
1002.3 987.6 13
03 14.07 штиль 0 5000 м слаб. дождь 10/10 300 м
[]
+25.7 +25.5 99 +37 +37 очень
душно
1003.2 988.5
06 14.07 СВ 1 6000 м слаб. дождь 10/10 300 м
[]
+27.4 +26.2 93 +41 +41 опасность
перегрева
1002.1 987.3 +24.6 11
09 14.07 ЮВ 2 7000 м в посл. час дождь 10/10 300 м
[]
+27.5 +26.3 93 +42 +42 опасность
перегрева
1000.7 986.1
12 14.07 В 1 6000 м дымка {дождь} 10/10 600 м
[]
+26.8 +25.9 95 +40 +40 очень
душно
1001.8 987.0 0.6
15 14.07 ЮВ 1 4100 м дымка н/о +26.0 +25.7 98 +38 +38 очень
душно
1002.8 988.1
18 14.07 СВ 1 3300 м в посл. час дождь ?/? +26.0 +25.7 98 +38 +38 очень
душно
1002.5 987.8 +27.9 0.1
21 14.07 В 1 3200 м слаб. дождь н/о +25.7 +25.4 98 +37 +37 очень
душно
1001.6 986.9
00 15.07 СВ 1 1200 м дождь 10/10 300 м
[]
+25.6 +25.4 99 +37 +37 очень
душно
1002.0 987.3 19
03 15.07 В 1 7000 м дымка {дождь} 10/10 300 м
[]
+26.9 +25.7 93 +40 +40 очень
душно
1003.1 988.5
06 15.07 штиль 0 8000 м {дождь} 10/10 600 м
[]
+30.3 +26.2 79 +46 +46 опасность
перегрева
1002.0 987.3 +25.6 3
09 15.07 Ю 1 8000 м 10/10 300 м
[]
+30.6 +27.0 81 +48 +48 опасность
перегрева
1000.5 986.1
12 15.07 штиль 0 6000 м дымка {дождь} 10/10 600 м
[]
+28.9 +27.1 90 +46 +46 опасность
перегрева
1001.7 987.0
15 15.07 З 1 6000 м дымка н/о +27.3 +26.2 94 +41 +41 опасность
перегрева
1003.7 989.1
18 15.07 штиль 0 6000 м дымка ?/? +26.0 +25.3 96 +38 +38 очень
душно
1003.8 989.1 +31.2
21 15.07 штиль 0 4400 м дымка н/о +25.1 +24.9 99 +36 +36 очень
душно
1003.3 988.6
00 16.07 В 1 4000 м дымка 10/10 600 м
[]
+25.9 +25.6 98 +38 +38 очень
душно
1004.5 989.8
03 16.07 ЮВ 1 6000 м дымка 5/5 600 м
[]
+30.9 +26.2 76 +47 +57 опасность
перегрева
1005.0 990.5

 

Местоположение метеостанции Лончжоу (Гуанси-Чжуанский автономный район, Китай): широта 22.37 долгота 106.75 высота над уровнем моря 129 м.

В архиве по умолчанию представлена погода в Лончжоу за последнюю неделю. Архивные данные за месяц целиком и за предыдущие месяцы, начиная с января 2011 года, Вы можете получить, выбрав интересующий диапазон дат из раскрывающегося списка и нажав кнопку "Ввод!".


*Определитесь, кто Вы:
робот инопланетянин человек

Внимание! Время в таблицах - всемирное. Для получения местного времени необходимо прибавить поправку, которая равна 8 ч.

Смотрите также архив погоды в соседних городах и на ближайших метеорологических станциях:

Погода в Лангсоне (Вьетнам) (60 км)
Погода в Каобанге (Вьетнам) (61 км)
Погода в Баккане (Вьетнам) (98 км)
Погода в Напо (Гуанси-Чжуанский автономный район, Китай) (132 км)
Погода в Наньнине (Гуанси-Чжуанский автономный район, Китай) (153 км)
Погода в Монгцае (Вьетнам) (157 км)
Погода в Байсэ (Гуанси-Чжуанский автономный район, Китай) (171 км)
Погода в Пхульене (Вьетнам) (175 км)
Погода в Ханое (Вьетнам) (178 км)
Погода в Хайфоне (Вьетнам) (186 км)

Пояснения к столбцам:

Ветер - указаны скорость ветра в м/с - средняя за 10 мин, порывы в срок и между сроками (в фигурных скобках) и направление, откуда дует ветер: С - северный, СВ - северо-восточный, В - восточный, ЮВ - юго-восточный, Ю - южный, ЮЗ - юго-западный, З - западный, СЗ - северо-западный.
Видимость - горизонтальная дальность видимости в метрах или километрах. При видимости от 1 до 10 км при отсутствии осадков обычно наблюдается дымка, при ухудшении видимости до 1 км и менее - туман. В сухую погоду видимость может ухудшаться дымом, пылью или мглою.
Явления - указаны атмосферные явления, наблюдавшиеся в срок или в последний час перед сроком; фигурными скобками обозначены явления, наблюдавшиеся между сроками (за 1-3 часа до срока); квадратными скобками обозначены град или гололедные отложения с указанием их диаметра в мм.
Облачность - указаны через наклонную черту общая и нижняя облачность в баллах и высота нижней границы облаков в метрах; квадратными скобками обозначены формы облаков: Ci - перистые, Cs - перисто-слоистые, Cc - перисто-кучевые, Ac - высококучевые, As - высокослоистые, Sc - слоисто-кучевые, Ns - слоисто-дождевые, Cu - кучевые, Cb - кучево-дождевые. Подробнее классификацию облаков см. в Атласе облаков (PDF).
T - Температура воздуха - температура, измеренная на высоте 2 м над землей.
Td - Температура точки росы - температура, при понижении до которой содержащийся в воздухе водяной пар достигнет насыщения.
f - Относительная влажность воздуха - влажноcть воздуха, измеренная на высоте 2 м над землей.
Te - Эффективная температура - температура, которую ощущает одетый по сезону человек в тени. Характеристика душности погоды. При расчете учитывается влияние влажности воздуха и скорости ветра на теплоощущения человека.
Tes - Эффективная температура на солнце - температура, которую ощущает человек, с поправкой на солнечный нагрев. Характеристика знойности погоды. Зависит от высоты солнца над горизонтом, облачности и скорости ветра. Ночью, в пасмурную погоду, а также при ветре 12 м/с и более поправка равна нулю.
P - Атмосферное давление - приведенное к уровню моря атмосферное давление.
Po - Атмосферное давление - измеренное на уровне метеостанции атмосферное давление.
Tmin - Минимальная температура - минимум температуры воздуха на высоте 2 м над землей.
Tmax - Максимальная температура - максимум температуры воздуха на высоте 2 м над землей.
R - Количество осадков - Количество выпавших осадков за период времени, мм. При наведении курсора мыши на число - период времени, за который выпало указанное количество осадков.
R24 - Количество осадков - Количество выпавших осадков за 24 часа, мм.
S - Снежный покров - Высота снежного покрова, см. При наведении курсора мыши на число - состояние снежного покрова и степень покрытия местности в баллах.